User: anonymous   Login
Location: Unspecified
(0.0000°N, 0.0000°E)
Time: 08:55:40
(UTC+00:00)
Language:

STARLINK-5956 - Orbit

View from above orbital plane
View from above orbital plane
View from above satellite
View from above satellite

Ground track
Ground track

The orbit is defined by the following mean orbital elements,

1 55994U          26145.55041840 +.00000000 +00000-0 +25048-4 0 00003
2 55994  43.0058 345.5973 0001720 263.1362  96.9294 15.27574534    05
Epoch (UTC): 25 May 2026 13:12:36
Eccentricity: 0.0001720
inclination: 43.0058°
perigee height: 482 km
apogee height: 484 km
right ascension of ascending node: 345.5973°
argument of perigee: 263.1362°
revolutions per day: 15.27574534
mean anomaly at epoch: 96.9294°

The dashed part of the orbit path shows where the satellite is in the earth's shadow,  

DLR